Spokane Fairchild, WA
on Sunday, December 2, 2012

Sunday
Previous Day Next Day
Daily Summary
 ActualAverage (KGEG)Record (KGEG)
Temperature
Mean Temperature °F 30°F  
Max Temperature 44°F 34°F 56°F (1927)
Min Temperature 37°F 25°F 4°F (1919)
Degree Days
Heating Degree Days 24 35  
Month to date heating degree days 70  
Since 1 July heating degree days 1737  
Cooling Degree Days 0 0  
Month to date cooling degree days 0  
Year to date cooling degree days 450  
Moisture
Dew Point 40°F   
Average Humidity 100    
Maximum Humidity 100    
Minimum Humidity 80    
Precipitation
Precipitation 0.30 in 0.08 in 0.97 in (1941)
Month to date precipitation 0.17  
Year to date precipitation 14.43  
Snow
Snow 0.00 in 0.40 in 6.00 in (1922)
Month to date snowfall 0.8  
Since 1 July snowfall 8.3  
Snow Depth in   
Wind
Wind Speed 13 mph   
Max Wind Speed 32 mph   
Max Gust Speed 36 mph   
Visibility 9 miles   
Events Rain , Snow   

Key: T is trace of precipitation, MM is missing value
Source: NWS Daily Summary
Time(PST)TemperatureDew PointHumidity Pressure Visibility Wind DirectionWind SpeedGust SpeedPrecipitationEvents Conditions
12:58 AM 40.3°F 40.3°F 100% 29.48 in 10.0 miles ESE 8.1 mph - 0.00 in Rain Light Rain
1:13 AM 39.2°F 39.2°F 100% 29.44 in 10.0 miles ESE 9.2 mph - N/A Rain Light Rain
1:18 AM 39.2°F 39.2°F 100% 29.43 in 10.0 miles ESE 9.2 mph - N/A Rain Light Rain
1:53 AM 39.2°F 39.2°F 100% 29.40 in 9.0 miles ESE 10.4 mph - N/A Rain Light Rain
1:54 AM 39.2°F 39.2°F 100% 29.40 in 9.0 miles ESE 9.2 mph - N/A Rain Light Rain
1:58 AM 39.6°F 39.6°F 100% 29.43 in 9.0 miles ESE 8.1 mph - 0.01 in Rain Light Rain
2:03 AM 39.2°F 39.2°F 100% 29.40 in 10.0 miles ESE 11.5 mph - N/A Rain Light Rain
2:08 AM 39.2°F 39.2°F 100% 29.39 in 10.0 miles ESE 11.5 mph - N/A Rain Light Rain
2:33 AM 39.2°F 39.2°F 100% 29.36 in 10.0 miles ESE 15.0 mph - N/A Rain Light Rain
2:43 AM 39.2°F 39.2°F 100% 29.34 in 9.0 miles East 12.7 mph - N/A Rain Light Rain
2:58 AM 38.7°F 38.7°F 100% 29.37 in 9.0 miles East 13.8 mph 23.0 mph 0.04 in Rain Light Rain
3:03 AM 39.2°F 39.2°F 100% 29.32 in 10.0 miles East 11.5 mph 23.0 mph N/A Rain Light Rain
3:28 AM 39.2°F 39.2°F 100% 29.30 in 9.0 miles East 13.8 mph - N/A Rain Light Rain
3:33 AM 39.2°F 39.2°F 100% 29.29 in 9.0 miles East 11.5 mph - N/A Rain Light Rain
3:38 AM 37.4°F 37.4°F 100% 29.29 in 10.0 miles East 11.5 mph - N/A Rain Rain
3:43 AM 37.4°F 37.4°F 100% 29.29 in 9.0 miles East 11.5 mph - N/A Rain Light Rain
3:58 AM 38.1°F 38.1°F 100% 29.32 in 9.0 miles East 10.4 mph - 0.04 in Rain Rain
4:53 AM 37.4°F 37.4°F 100% 29.23 in 8.0 miles East 9.2 mph - N/A Rain Rain
4:58 AM 37.9°F 37.9°F 100% 29.29 in 8.0 miles ENE 8.1 mph - 0.09 in Rain Rain
5:23 AM 37.4°F 37.4°F 100% 29.21 in 7.0 miles ENE 8.1 mph - N/A Rain Light Rain
5:28 AM 37.4°F 37.4°F 100% 29.20 in 7.0 miles NE 5.8 mph - N/A Rain Light Rain
5:43 AM 37.4°F 37.4°F 100% 29.19 in 6.0 miles ENE 9.2 mph - N/A Rain Rain
5:48 AM 37.4°F 37.4°F 100% 29.19 in 5.0 miles ENE 9.2 mph - N/A Rain Rain
5:58 AM 37.4°F 37.4°F 100% 29.22 in 6.0 miles East 6.9 mph - 0.04 in Rain Light Rain
6:18 AM 37.4°F 37.4°F 100% 29.18 in 4.0 miles East 5.8 mph - N/A Rain Light Rain
6:28 AM 37.4°F 37.4°F 100% 29.18 in 5.0 miles East 4.6 mph - N/A Rain Light Rain
6:38 AM 39.2°F 39.2°F 100% 29.18 in 8.0 miles East 5.8 mph - N/A Rain Light Rain
6:43 AM 39.2°F 39.2°F 100% 29.18 in 10.0 miles Variable 4.6 mph - N/A Rain Light Rain
6:53 AM 39.2°F 39.2°F 100% 29.18 in 10.0 miles SSE 9.2 mph - N/A Rain Light Rain
6:58 AM 39.7°F 39.7°F 100% 29.22 in 10.0 miles SE 9.2 mph - 0.03 in Rain Light Rain
7:13 AM 41.0°F 41.0°F 100% 29.17 in 10.0 miles SSE 13.8 mph - N/A Rain Light Rain
7:58 AM 43.2°F 43.2°F 100% 29.21 in 9.0 miles SSW 18.4 mph 27.6 mph 0.02 in Rain Light Rain
8:13 AM 42.8°F 42.8°F 100% 29.19 in 9.0 miles SSW 17.3 mph 32.2 mph N/A Rain Light Rain
8:18 AM 42.8°F 42.8°F 100% 29.19 in 9.0 miles SSW 24.2 mph 33.4 mph N/A Rain Light Rain
8:33 AM 42.8°F 42.8°F 100% 29.20 in 4.0 miles SW 25.3 mph 29.9 mph N/A Rain Light Rain
8:58 AM 42.8°F 42.8°F 100% 29.24 in 10.0 miles SW 20.7 mph 25.3 mph 0.00 in   Light Drizzle
9:38 AM 41.0°F 41.0°F 100% 29.25 in 10.0 miles SW 18.4 mph 24.2 mph N/A   Light Drizzle
9:58 AM 41.2°F 41.2°F 100% 29.29 in 10.0 miles SW 20.7 mph 27.6 mph 0.00 in   Light Drizzle
10:58 AM 41.0°F 41.0°F 100% 29.34 in 10.0 miles SW 21.9 mph 29.9 mph 0.00 in Rain Light Rain
11:28 AM 41.0°F 41.0°F 100% 29.33 in 10.0 miles SW 18.4 mph 28.8 mph N/A   Light Drizzle
11:32 AM 41.0°F 41.0°F 100% 29.33 in 10.0 miles SW 18.4 mph 26.5 mph N/A   Light Drizzle
11:42 AM 41.0°F 41.0°F 100% 29.34 in 10.0 miles SW 19.6 mph 28.8 mph N/A   Light Drizzle
11:47 AM 41.0°F 41.0°F 100% 29.34 in 10.0 miles SW 20.7 mph 28.8 mph N/A Rain Light Rain
11:58 AM 42.1°F 41.9°F 99% 29.38 in 10.0 miles SSW 19.6 mph 26.5 mph 0.00 in   Light Drizzle
12:08 PM 42.8°F 42.8°F 100% 29.36 in 10.0 miles SSW 20.7 mph 26.5 mph N/A   Light Drizzle
12:13 PM 42.8°F 42.8°F 100% 29.37 in 10.0 miles SW 21.9 mph 26.5 mph N/A   Light Drizzle
12:23 PM 42.8°F 42.8°F 100% 29.38 in 10.0 miles SW 20.7 mph 26.5 mph N/A Rain Light Rain
12:33 PM 42.8°F 42.8°F 100% 29.39 in 10.0 miles SW 24.2 mph 29.9 mph N/A   Light Drizzle
12:58 PM 44.4°F 44.4°F 100% 29.43 in 10.0 miles SW 26.5 mph 34.5 mph 0.00 in   Mostly Cloudy
1:03 PM 44.6°F 44.6°F 100% 29.40 in 10.0 miles SW 27.6 mph 34.5 mph N/A   Mostly Cloudy
1:05 PM 44.6°F 44.6°F 100% 29.41 in 10.0 miles SW 26.5 mph 34.5 mph N/A Rain Light Rain
1:06 PM 44.6°F 44.6°F 100% 29.41 in 10.0 miles SW 26.5 mph 34.5 mph N/A   Scattered Clouds
1:12 PM 44.6°F 44.6°F 100% 29.41 in 10.0 miles SW 32.2 mph 35.7 mph N/A Rain Light Rain
1:58 PM 44.6°F 38.7°F 80% 29.49 in 10.0 miles SW 18.4 mph 35.7 mph 0.03 in Rain Light Rain
2:58 PM 42.6°F 42.6°F 100% 29.56 in 10.0 miles SW 20.7 mph 33.4 mph 0.00 in   Light Drizzle
3:58 PM 41.5°F 41.5°F 100% 29.62 in 10.0 miles SSW 15.0 mph - 0.00 in   Light Drizzle
4:07 PM 41.0°F 41.0°F 100% 29.58 in 10.0 miles SSW 16.1 mph - N/A   Clear
4:14 PM 41.0°F 41.0°F 100% 29.58 in 10.0 miles SSW 17.3 mph - N/A   Light Drizzle
4:35 PM 39.2°F 39.2°F 100% 29.59 in 10.0 miles SSW 18.4 mph 23.0 mph N/A   Clear
4:39 PM 39.2°F 39.2°F 100% 29.60 in 10.0 miles SSW 17.3 mph 23.0 mph N/A   Light Drizzle
4:51 PM 39.2°F 39.2°F 100% 29.61 in 10.0 miles SSW 12.7 mph - N/A   Clear
4:52 PM 39.2°F 39.2°F 100% 29.61 in 10.0 miles SSW 13.8 mph - N/A   Light Drizzle
4:58 PM 39.7°F 39.7°F 100% 29.66 in 10.0 miles SSW 18.4 mph 21.9 mph 0.00 in   Light Drizzle
4:59 PM 39.2°F 39.2°F 100% 29.61 in 10.0 miles SSW 17.3 mph 21.9 mph N/A   Clear
5:05 PM 39.2°F 39.2°F 100% 29.62 in 10.0 miles SSW 16.1 mph 23.0 mph N/A   Light Drizzle
5:21 PM 39.2°F 39.2°F 100% 29.62 in 10.0 miles SSW 19.6 mph 27.6 mph N/A   Clear
5:58 PM 38.5°F 38.5°F 100% 29.70 in 10.0 miles SSW 15.0 mph 21.9 mph 0.00 in   Partly Cloudy
6:58 PM 38.1°F 38.1°F 100% 29.74 in 10.0 miles SSW 16.1 mph - N/A   Mostly Cloudy
7:29 PM 37.4°F 37.4°F 100% 29.70 in 10.0 miles SSW 16.1 mph - N/A   Partly Cloudy
7:58 PM 38.7°F 38.7°F 100% 29.74 in 10.0 miles SSW 17.3 mph 25.3 mph 0.00 in   Mostly Cloudy
8:42 PM 37.4°F 37.4°F 100% 29.72 in 10.0 miles SSW 17.3 mph - N/A   Scattered Clouds
8:55 PM 37.4°F 37.4°F 100% 29.72 in 10.0 miles SSW 17.3 mph 26.5 mph N/A   Partly Cloudy
8:58 PM 37.6°F 37.6°F 100% 29.77 in 10.0 miles SSW 18.4 mph 26.5 mph 0.00 in   Scattered Clouds
9:19 PM 37.4°F 37.4°F 100% 29.74 in 10.0 miles SSW 20.7 mph 27.6 mph N/A   Partly Cloudy
9:20 PM 37.4°F 37.4°F 100% 29.74 in 10.0 miles SSW 18.4 mph 27.6 mph N/A Snow Light Snow
9:23 PM 37.4°F 37.4°F 100% 29.74 in 10.0 miles SSW 19.6 mph 27.6 mph N/A   Scattered Clouds
9:29 PM 37.4°F 37.4°F 100% 29.75 in 10.0 miles SSW 18.4 mph 27.6 mph N/A Snow Light Snow
9:30 PM 37.4°F 37.4°F 100% 29.75 in 10.0 miles SSW 17.3 mph 27.6 mph N/A   Mostly Cloudy
9:58 PM 37.6°F 37.6°F 100% 29.80 in 10.0 miles SSW 12.7 mph 21.9 mph 0.00 in   Clear
10:12 PM 37.4°F 37.4°F 100% 29.75 in 10.0 miles SSW 15.0 mph - N/A   Clear
10:58 PM 37.9°F 37.9°F 100% 29.82 in 10.0 miles SSW 18.4 mph 25.3 mph 0.00 in Snow Light Snow
11:18 PM 37.4°F 37.4°F 100% 29.78 in 10.0 miles SSW 15.0 mph 26.5 mph N/A   Overcast
11:58 PM 38.5°F 38.5°F 100% 29.83 in 10.0 miles SSW 17.3 mph 25.3 mph 0.00 in   Overcast
Moon Phase
Dec. 02 Dec. 06 Dec. 13 Dec. 20 Dec. 28
Sunrise:07:19 AM (PST) Moon Rise:08:00 PM (PST)12/2
Sunset:04:00 PM (PST) Moon Set:10:05 AM (PST)12/2

Copyright © 2014 The Weather Underground, Inc.